Wind_Speed
28 29 30 30 31 31 30 30 30 31 31 31 31 31 32 33 33 32 32 31 31 31 30 30 29 28 27 25 25 24 24 22 21 21 21 20 20 19 19 18 17 16 15
29 29 29 29 30 30 29 29 29 30 31 32 32 32 32 33 34 34 35 34 33 33 32 32 32 31 31 30 28 27 26 26 25 23 23 22 21 21 20 20 20 19 18
29 29 28 28 28 28 27 27 27 28 29 30 31 31 30 31 31 32 33 34 34 33 33 32 33 32 32 32 32 30 29 27 27 26 25 24 24 23 22 22 21 21 20
29 28 27 26 26 25 24 25 25 25 26 27 28 28 29 29 30 32 32 31 33 34 34 33 33 34 34 33 32 32 31 29 29 28 27 26 26 25 24 24 23 23 22
27 26 25 24 24 23 23 23 23 24 25 26 26 26 27 28 29 30 30 31 32 32 33 32 33 33 33 33 33 33 32 30 29 29 29 28 28 27 27 27 27 26 25
26 25 24 23 22 21 21 22 23 23 24 25 25 25 27 28 29 28 28 29 29 31 32 34 34 33 33 33 32 32 32 31 30 30 30 30 30 30 30 29 30 29 28
25 24 23 22 21 21 21 22 22 23 24 24 24 25 26 27 27 28 28 28 29 30 30 31 31 31 31 31 32 32 33 32 32 32 31 31 31 31 31 31 32 32 31
24 24 23 22 22 22 22 22 22 23 24 25 25 25 25 26 26 27 27 27 28 29 29 29 30 28 28 29 31 32 33 32 32 32 30 30 31 32 32 32 33 33 33
25 25 24 24 24 23 23 23 23 24 25 25 26 26 26 25 25 25 26 27 27 27 27 27 28 29 30 30 30 30 31 32 32 31 31 30 31 32 33 33 34 33 33
26 25 25 25 25 25 25 25 25 25 25 26 27 27 27 26 25 24 25 26 27 27 27 27 28 29 30 30 29 30 30 32 31 31 31 31 31 31 32 33 33 34 34
27 27 27 27 27 27 27 27 26 26 27 27 27 28 28 27 27 26 25 26 27 27 26 27 28 29 29 29 29 29 29 30 31 30 30 30 30 30 31 32 33 33 34
30 30 30 30 30 30 30 30 29 29 29 29 29 29 29 29 28 28 27 26 27 27 27 27 28 28 27 27 28 28 28 28 29 29 30 30 30 30 29 30 31 32 33
33 34 34 33 34 33 33 33 32 31 31 30 30 30 30 30 30 30 29 28 27 26 27 27 28 27 27 26 27 27 26 26 27 27 28 28 28 28 28 29 29 30 31
37 37 37 37 37 37 36 35 34 34 33 32 32 32 31 31 30 30 30 29 27 27 27 27 28 28 27 26 26 25 26 26 25 26 26 26 27 27 28 28 29 29 31
42 42 41 41 40 39 39 38 37 36 35 34 34 33 32 32 31 30 30 29 28 26 27 27 28 28 28 28 27 26 25 25 25 26 26 26 28 28 28 28 29 29 30
46 46 45 45 43 42 41 40 39 38 37 36 35 34 33 33 32 31 30 29 28 27 26 26 27 28 28 27 27 26 26 25 25 25 26 26 26 27 28 28 29 28 29
52 51 49 48 47 45 43 42 41 40 39 38 37 35 34 33 32 31 30 29 28 28 27 26 26 27 26 26 26 26 25 25 25 25 25 26 26 27 28 28 29 29 28
57 55 54 52 50 48 47 45 44 42 40 38 37 36 35 34 32 31 30 29 29 28 27 26 26 26 26 25 25 25 25 25 25 25 25 26 26 27 27 28 28 28 28
62 60 59 57 55 52 50 48 46 44 42 40 37 36 35 34 33 32 31 29 29 28 28 27 26 26 26 26 25 25 24 24 24 24 24 24 25 26 26 26 27 27 27
68 66 64 62 59 56 53 51 49 46 44 41 39 37 36 35 34 33 31 30 29 28 28 27 25 25 25 26 26 25 24 24 23 24 24 24 24 24 24 25 25 25 25
73 72 70 66 63 60 57 55 51 49 46 43 40 39 37 36 34 33 32 30 29 28 27 26 25 24 25 25 25 24 23 23 22 23 22 22 22 23 23 23 23 23 24
75 75 74 71 68 65 61 58 55 52 49 46 43 40 38 36 35 33 32 31 29 28 27 26 25 24 24 25 25 24 23 22 22 22 22 21 21 21 22 22 22 22 22
69 69 71 71 70 68 64 61 57 54 51 47 44 41 39 37 36 34 32 31 30 28 27 25 24 24 23 23 24 24 23 22 22 21 21 20 20 19 19 19 19 19 19
57 59 61 62 63 63 63 61 58 54 51 48 45 42 39 38 36 34 32 31 29 27 26 25 24 23 23 23 24 24 23 22 21 20 20 19 18 18 17 17 17 17 16
45 48 49 51 53 54 55 56 55 53 50 46 44 42 39 37 36 33 31 30 28 26 25 24 22 22 22 22 22 22 21 21 20 20 19 18 18 17 17 16 16 15 15
33 36 38 41 43 45 47 49 50 50 47 44 43 41 39 36 34 32 30 28 27 25 24 24 22 21 22 22 21 20 21 21 20 19 18 17 16 15 15 15 14 14 14
Wind_Direction
291 290 290 289 289 288 287 286 284 282 281 281 279 275 271 268 267 268 269 270 271 272 271 268 266 265 265 266 265 267 264 262 259 256 253 250 248 246 245 244 244 244 243
292 291 290 289 289 289 289 288 287 286 284 283 281 279 276 275 272 269 268 268 270 272 271 269 268 265 264 263 263 264 264 261 257 256 253 251 251 248 246 245 244 244 244
293 291 291 289 289 289 290 290 288 287 285 284 282 280 278 277 277 276 273 269 268 270 271 269 268 267 265 262 259 260 261 261 256 255 254 251 251 250 246 245 245 245 245
293 292 291 290 289 290 290 290 291 291 290 288 287 286 283 280 278 277 275 273 272 270 268 268 269 267 265 262 259 260 259 259 256 254 253 252 251 249 247 247 246 245 246
292 291 290 290 291 292 293 293 293 294 292 291 289 289 289 287 283 281 278 276 275 271 269 269 270 267 264 261 259 259 257 255 255 254 252 252 252 250 248 248 247 247 247
291 288 288 289 290 292 294 295 294 294 295 294 294 292 291 288 287 284 280 278 277 273 270 269 269 267 262 259 256 256 255 252 253 255 254 252 252 251 250 248 247 248 248
287 286 286 287 290 292 293 295 296 298 298 298 298 297 295 292 288 284 282 281 277 273 272 271 268 266 262 258 255 254 253 252 253 254 254 252 251 250 250 249 248 249 248
283 282 284 285 288 290 292 294 297 300 301 301 300 299 299 295 295 289 284 283 280 274 271 270 267 264 261 257 255 255 253 252 252 253 253 253 251 250 249 249 249 249 249
281 281 283 284 286 287 290 292 295 298 300 302 303 303 302 298 295 293 288 284 280 276 272 270 267 264 260 258 254 256 254 253 251 252 252 253 252 251 249 249 249 248 248
279 279 280 282 284 286 288 290 293 296 299 301 302 303 303 300 298 294 289 286 280 274 272 269 264 262 260 257 255 255 257 253 251 251 251 252 252 251 249 249 248 247 247
278 277 278 279 282 284 286 288 291 293 296 299 300 301 302 300 298 297 292 286 282 276 272 268 262 260 259 256 254 254 253 252 251 251 251 252 252 250 251 249 248 247 247
278 278 278 279 280 282 284 286 288 291 293 296 297 299 299 299 297 296 295 289 285 281 276 270 266 263 260 258 255 255 252 251 250 251 250 252 251 251 251 250 249 248 248
278 278 279 279 280 281 282 283 285 287 289 292 294 296 297 297 296 295 294 291 287 284 279 273 269 266 262 259 255 254 253 251 251 251 251 251 250 250 250 251 251 250 248
277 277 277 278 278 279 279 280 282 284 286 288 290 293 294 294 295 295 293 291 288 284 280 275 271 266 263 260 259 258 256 254 253 253 253 250 250 250 250 251 251 250 250
274 274 274 274 275 275 276 276 278 281 282 284 286 289 290 291 292 292 292 290 288 284 279 275 271 268 264 262 260 260 258 255 255 255 255 253 253 253 252 252 251 251 250
271 271 270 270 271 272 273 273 274 275 278 281 282 284 287 288 289 289 289 288 287 285 281 275 270 267 264 262 259 258 258 256 255 255 256 256 256 255 254 253 252 252 252
269 268 268 268 268 268 269 270 272 272 274 276 279 280 283 285 286 287 287 286 285 285 281 275 270 267 265 263 260 259 258 257 255 255 256 258 257 257 255 254 253 252 253
269 268 267 266 266 266 266 267 269 270 271 273 275 277 279 282 284 285 285 284 283 282 279 274 270 266 264 261 259 258 258 257 255 255 257 257 258 257 256 255 254 252 253
268 267 266 266 265 264 265 265 266 268 269 269 271 273 276 278 281 283 282 281 281 280 278 274 269 264 260 258 256 258 257 256 257 257 257 257 256 255 254 253 253 254 253
267 267 266 265 264 263 262 263 263 264 266 267 268 270 272 275 277 279 279 279 279 278 277 273 267 261 257 255 257 256 256 257 257 257 256 255 255 253 252 252 251 251 251
266 265 264 264 263 261 261 260 260 261 262 263 265 266 268 270 272 274 275 276 277 276 276 271 265 259 255 255 253 254 256 256 256 258 255 252 252 252 251 250 249 248 249
266 264 263 262 260 259 258 258 258 258 258 259 260 262 264 266 268 270 271 273 274 274 273 270 263 257 252 250 250 251 252 252 253 255 253 251 252 250 248 247 246 246 247
265 264 262 260 259 257 255 255 256 255 255 256 256 258 259 261 264 266 268 270 271 270 268 266 262 255 251 248 246 247 248 249 250 249 248 246 245 245 245 243 242 243 245
267 265 262 260 258 255 253 252 250 251 251 251 252 253 254 257 259 262 264 266 266 264 263 263 258 252 248 247 246 245 247 247 248 245 241 241 241 243 242 239 238 239 242
271 268 264 260 257 253 249 247 245 244 245 246 247 248 250 253 255 257 259 260 260 259 258 256 249 245 244 242 243 244 244 242 243 240 239 238 236 236 235 232 233 234 237
276 271 267 262 257 251 246 241 239 238 238 239 241 242 244 247 249 251 253 255 255 253 253 247 241 242 239 239 238 238 238 238 236 234 234 234 231 227 227 229 231 235 241
Height
5874 5872 5871 5870 5868 5867 5866 5865 5865 5864 5864 5863 5863 5863 5864 5864 5864 5864 5865 5866 5867 5867 5867 5868 5869 5870 5871 5872 5873 5875 5876 5877 5878 5879 5879 5880 5881 5882 5883 5885 5886 5887 5888
5868 5866 5865 5863 5862 5861 5859 5858 5857 5857 5857 5856 5856 5856 5856 5856 5856 5857 5858 5859 5859 5860 5860 5861 5862 5863 5864 5866 5867 5868 5870 5871 5872 5874 5875 5876 5877 5878 5879 5881 5882 5884 5885
5862 5860 5859 5857 5856 5855 5853 5852 5851 5850 5850 5849 5849 5848 5848 5848 5849 5849 5850 5850 5851 5852 5853 5853 5854 5856 5857 5858 5860 5861 5863 5865 5866 5868 5869 5871 5872 5873 5875 5876 5878 5880 5881
5856 5854 5853 5851 5850 5849 5848 5847 5845 5844 5843 5842 5842 5840 5840 5841 5841 5841 5842 5842 5842 5843 5844 5846 5847 5847 5848 5850 5852 5854 5856 5858 5859 5861 5863 5865 5866 5868 5870 5872 5873 5875 5877
5850 5848 5847 5846 5845 5844 5842 5841 5840 5839 5838 5836 5835 5834 5834 5834 5834 5834 5834 5834 5834 5835 5836 5837 5838 5839 5840 5841 5843 5846 5848 5850 5852 5854 5856 5858 5860 5862 5864 5866 5868 5870 5872
5844 5843 5842 5841 5839 5838 5837 5836 5834 5833 5832 5830 5829 5828 5827 5827 5826 5826 5826 5827 5827 5827 5828 5829 5830 5830 5831 5832 5835 5837 5840 5842 5845 5847 5849 5851 5853 5855 5858 5860 5862 5864 5866
5839 5837 5836 5835 5834 5833 5832 5831 5829 5827 5826 5824 5823 5822 5821 5820 5820 5819 5819 5819 5819 5819 5819 5820 5821 5821 5821 5823 5826 5829 5832 5834 5836 5839 5841 5843 5846 5848 5850 5853 5855 5857 5860
5833 5832 5831 5830 5829 5828 5827 5825 5824 5822 5820 5818 5817 5816 5815 5815 5813 5812 5812 5811 5812 5812 5812 5812 5812 5812 5811 5814 5818 5820 5823 5825 5828 5830 5833 5835 5838 5840 5843 5845 5848 5850 5852
5827 5826 5825 5825 5824 5823 5821 5820 5818 5817 5815 5813 5811 5809 5808 5808 5807 5807 5805 5805 5804 5804 5804 5804 5805 5805 5806 5807 5810 5813 5815 5817 5819 5822 5824 5827 5829 5832 5834 5837 5840 5842 5845
5821 5820 5820 5819 5818 5817 5816 5814 5813 5811 5809 5807 5805 5803 5802 5800 5800 5800 5799 5798 5797 5797 5797 5797 5798 5798 5799 5800 5803 5805 5807 5809 5811 5813 5816 5819 5821 5824 5826 5829 5831 5834 5837
5814 5814 5813 5812 5811 5810 5809 5808 5806 5805 5803 5801 5799 5797 5795 5793 5792 5792 5792 5791 5790 5789 5789 5789 5790 5790 5791 5792 5795 5796 5798 5801 5803 5806 5808 5811 5813 5816 5818 5821 5823 5826 5829
5807 5806 5806 5805 5804 5803 5802 5801 5800 5798 5796 5794 5793 5791 5789 5787 5786 5784 5784 5783 5782 5782 5782 5782 5782 5781 5782 5785 5787 5789 5791 5793 5796 5798 5801 5803 5805 5808 5810 5813 5815 5818 5821
5798 5798 5797 5797 5796 5795 5794 5793 5792 5790 5789 5787 5786 5784 5782 5780 5779 5777 5776 5775 5775 5774 5774 5775 5775 5775 5776 5778 5780 5782 5784 5786 5789 5791 5793 5795 5798 5800 5803 5805 5808 5811 5813
5788 5788 5788 5787 5787 5786 5785 5784 5783 5782 5781 5780 5778 5776 5775 5773 5772 5770 5769 5768 5768 5767 5767 5767 5767 5768 5770 5771 5773 5775 5777 5779 5781 5784 5786 5788 5791 5793 5796 5798 5801 5803 5806
5778 5777 5777 5777 5777 5776 5776 5775 5774 5773 5772 5771 5770 5769 5767 5766 5764 5763 5762 5761 5760 5760 5760 5760 5760 5761 5763 5764 5766 5768 5770 5772 5775 5777 5779 5781 5784 5786 5788 5791 5794 5796 5798
5765 5765 5765 5765 5765 5765 5765 5765 5764 5764 5763 5762 5761 5760 5759 5758 5757 5756 5754 5753 5753 5752 5753 5753 5753 5753 5755 5757 5759 5761 5763 5766 5768 5770 5772 5775 5777 5779 5781 5784 5786 5789 5791
5750 5751 5751 5751 5752 5753 5753 5753 5754 5754 5753 5753 5752 5751 5750 5749 5749 5748 5747 5746 5745 5745 5745 5745 5746 5746 5747 5749 5752 5754 5756 5759 5761 5763 5766 5768 5770 5772 5774 5776 5779 5781 5784
5733 5734 5735 5736 5738 5739 5740 5741 5742 5742 5743 5743 5742 5742 5742 5741 5740 5739 5739 5739 5738 5738 5738 5738 5738 5739 5740 5743 5745 5747 5750 5752 5754 5756 5759 5761 5763 5765 5767 5769 5772 5774 5777
5715 5716 5718 5720 5722 5724 5725 5727 5728 5730 5731 5732 5732 5732 5732 5732 5732 5731 5731 5731 5730 5730 5730 5731 5732 5733 5734 5736 5738 5741 5743 5745 5747 5749 5752 5754 5756 5758 5760 5763 5765 5767 5770
5694 5696 5698 5701 5704 5706 5709 5712 5714 5716 5718 5719 5721 5722 5722 5723 5723 5723 5723 5723 5723 5722 5723 5723 5724 5725 5727 5729 5731 5734 5736 5739 5741 5743 5745 5747 5749 5751 5754 5756 5758 5761 5763
5671 5673 5676 5680 5684 5688 5691 5695 5699 5702 5705 5707 5709 5711 5712 5713 5713 5714 5714 5715 5715 5715 5715 5716 5717 5718 5720 5723 5725 5728 5730 5732 5735 5737 5739 5741 5743 5745 5747 5750 5752 5754 5757
5645 5648 5652 5657 5662 5667 5672 5677 5682 5686 5690 5693 5697 5699 5701 5703 5704 5705 5706 5707 5708 5708 5709 5709 5711 5712 5714 5716 5719 5722 5724 5726 5729 5731 5733 5735 5738 5739 5741 5744 5746 5748 5751
5619 5622 5626 5631 5638 5644 5650 5657 5663 5669 5675 5679 5683 5687 5690 5692 5694 5696 5697 5699 5700 5700 5702 5703 5704 5706 5708 5710 5713 5715 5718 5721 5723 5725 5727 5730 5732 5734 5736 5738 5740 5743 5745
5597 5599 5603 5607 5613 5620 5628 5636 5644 5651 5658 5664 5669 5674 5678 5681 5684 5686 5688 5690 5692 5693 5694 5696 5698 5700 5702 5704 5707 5709 5712 5715 5717 5720 5722 5725 5727 5729 5731 5733 5736 5738 5740
5579 5581 5584 5587 5593 5599 5606 5615 5623 5633 5641 5648 5655 5661 5666 5670 5674 5676 5679 5682 5684 5686 5687 5689 5691 5693 5696 5698 5701 5704 5706 5709 5712 5714 5717 5720 5722 5725 5727 5729 5732 5734 5736
5566 5566 5568 5571 5575 5581 5588 5596 5605 5615 5625 5634 5641 5648 5654 5659 5663 5667 5670 5673 5676 5678 5680 5683 5685 5687 5690 5693 5696 5699 5701 5705 5707 5710 5713 5716 5718 5721 5723 5726 5728 5730 5731